This demonstration page uses our WeatherBlox Daily Observations layout. Learn more.

Left ArrowRight Arrow

30.00354, -91.81873

Hourly Observations for July 4, 2022

Temp ( °F °C ) Dew Point ( °F °C ) Humidity (%) Winds ( mph kmh ) Pressure ( in mb ) Visibility ( mi km ) Precip ( " mm )
12:53 am 00:53 Clear 79 26.1 76 24.4 90 90 Calm 30.05 1018 10 16 0.00 0.00
1:53 am 01:53 Clear 77 25 76 24.4 96 96 Calm 30.04 1017 10 16 0.00 0.00
2:53 am 02:53 Clear with Mist and Fog 78 25.6 76 24.4 93 93 Calm 30.04 1017 4 6 0.00 0.00
3:53 am 03:53 Clear with Mist and Fog 77 25 75 23.9 94 94 Calm 30.05 1018 3 5 0.00 0.00
3:55 am 03:55 Clear with Mist and Fog 76 24.4 75 23.9 97 97 Calm 30.05 1018 2 3 0.00 0.00
4:04 am 04:04 Clear with Mist and Fog 76 24.4 75 23.9 97 97 Calm 30.05 1018 1 1 0.00 0.00
4:10 am 04:10 Clear with Mist and Fog 76 24.4 74 23.3 94 94 Calm 30.05 1018 2 3 0.00 0.00
4:19 am 04:19 Clear with Mist and Fog 76 24.4 75 23.9 97 97 Calm 30.05 1018 1 2 0.00 0.00
4:32 am 04:32 Clear with Mist and Fog 76 24.4 74 23.3 94 94 Calm 30.05 1018 1 1 0.00 0.00
4:36 am 04:36 Clear with Mist and Fog 76 24.4 74 23.3 94 94 Calm 30.05 1018 3 4 0.00 0.00
4:43 am 04:43 Partly Cloudy with Mist and Fog 76 24.4 74 23.3 94 94 Calm 30.05 1018 5 8 0.00 0.00
4:53 am 04:53 Mostly Clear 76 24.4 75 23.9 97 97 Calm 30.05 1018 8 13 0.00 0.00
5:53 am 05:53 Partly Cloudy with Mist and Fog 76 24.4 74 23.3 94 94 Calm 30.05 1018 3 5 0.00 0.00
6:07 am 06:07 Mostly Cloudy with Mist and Fog 76 24.4 74 23.3 94 94 Calm 30.06 1018 4 6 0.00 0.00
6:15 am 06:15 Partly Cloudy with Mist and Fog 76 24.4 74 23.3 94 94 Calm 30.06 1018 4 6 0.00 0.00
6:22 am 06:22 Mostly Cloudy with Mist and Fog 77 25 75 23.9 94 94 Calm 30.06 1018 4 6 0.00 0.00
6:35 am 06:35 Partly Cloudy with Mist and Fog 77 25 75 23.9 94 94 Calm 30.06 1018 4 6 0.00 0.00
6:53 am 06:53 Mostly Sunny 77 25 75 23.9 94 94 Calm 30.06 1018 8 13 0.00 0.00
7:53 am 07:53 Sunny 83 28.3 78 25.6 85 85 Calm 30.07 1018 10 16 0.00 0.00
8:53 am 08:53 Mostly Sunny 85 29.4 77 25 77 77 WSW 3 6 30.09 1019 10 16 0.00 0.00
9:53 am 09:53 Partly Cloudy 87 30.6 75 23.9 67 67 W 3 6 30.11 1020 10 16 0.00 0.00
10:53 am 10:53 Sunny 89 31.7 75 23.9 63 63 VRB 3 6 30.10 1019 10 16 0.00 0.00
11:53 am 11:53 Sunny 91 32.8 73 22.8 56 56 Calm 30.10 1019 10 16 0.00 0.00
12:53 pm 12:53 Sunny 92 33.3 74 23.3 56 56 Calm 30.09 1019 10 16 0.00 0.00
1:53 pm 13:53 Mostly Sunny 93 33.9 73 22.8 52 52 undefined N/A 30.06 1018 10 16 0.00 0.00
2:53 pm 14:53 Mostly Sunny 93 33.9 74 23.3 54 54 SSW 8 13 30.04 1017 10 16 0.00 0.00
3:53 pm 15:53 Sunny 93 33.9 77 25 60 60 SSW 10 17 30.04 1017 10 16 0.00 0.00
4:53 pm 16:53 Mostly Sunny 92 33.3 76 24.4 60 60 SSW 10 17 30.03 1017 10 16 0.00 0.00
5:53 pm 17:53 Sunny 90 32.2 76 24.4 63 63 SSW 12 19 30.02 1017 10 16 0.00 0.00
6:53 pm 18:53 Sunny 88 31.1 74 23.3 63 63 S 10 17 30.02 1017 10 16 0.00 0.00
7:53 pm 19:53 Sunny 86 30 75 23.9 70 70 S 6 9 30.03 1017 10 16 0.00 0.00
8:53 pm 20:53 Clear 82 27.8 76 24.4 82 82 SSW 5 7 30.04 1017 10 16 0.00 0.00
9:53 pm 21:53 Clear 81 27.2 76 24.4 85 85 SSW 5 7 30.04 1017 10 16 0.00 0.00
10:53 pm 22:53 Clear 80 26.7 76 24.4 87 87 SSW 5 7 30.05 1018 10 16 0.00 0.00
11:53 pm 23:53 Clear 81 27.2 76 24.4 85 85 WSW 5 7 30.05 1018 10 16 0.00 0.00

Powered by AerisWeather